OBJECT Z, 61758

Orbit data source: Space-Track

You're viewing an Uncataloged Satellite

Recently launched and/or uncataloged satellites may have evolving metadata. Metadata may include but not limited to: Owner, Maufacturer, Bus, Motor, and Mission.

OBJECT Z, 61758 is a satellite in SSO that was launched on Mon, 04 Nov 2024 UTC via a SOYUZ-2-1B launch vehicle from the Vostochny Cosmodrome (VOSTO). Unknown objects in Earth's orbit typically refer to objects detected orbiting the Earth but have not yet been identified or cataloged. These objects could be anything from previously untracked satellites, spent rocket stages, debris from satellite collisions, or even natural meteoroids temporarily captured by Earth's gravity.

Loading next visibility...
Identifier
61758, 2024-199Z
Orbit
SSO
Country
Flag of TBDTBD
Related business
Manufacturer
Sputniks
Mission
Operational Commercial Communications
Bus & Motor
CUBESAT 3U?, Unknown motor
Mass
3 kg wet, 3 kg dry
Launch date (UTC)
2024-11-04 (1 year ago)
Launch vehicle
SOYUZ-2-1B
Launch site
Vostochny Cosmodrome (VOSTO)
Object type
Unknown
Shape & HBR
Box, 0.1 m
Radar Cross Section
0.035 m², Small (<0.1 m²)

Expand to show TLE details & history
Last TLE update: 8 hours ago

TLE from 8 hours ago
0 OBJECT Z
1 61758U 24199Z   25295.16965721  .00004908  00000-0  44060-3 0  9990
2 61758  97.3393 144.4533 0006762 142.8104 217.3588 14.96130626 99525
Epoch: 2025-10-22T04:04Z
TLE epoch observation values (Epoch: 2025-10-22T04:04:18.382Z)
Latitude
-0.00003°
Longitude
52.5296°
Altitude
585.667 km
Speed
7.565 km/s
True Right ascension
09h 37m 48s
True Declination
0° 00' 00"
Sunlit
Object was in daylight at epoch
Visualization orbit readout
Latitude
Unknown
Longitude
Unknown
Altitude
Unknown
Speed
Unknown
Apparent Right ascension
Unknown
Apparent Declination
Unknown
Sunlit
N/A
Visualization observer readout
Local Sidereal Time
07:10:27
Azimuth
Unknown
Elevation
Unknown
Doppler factor
Unknown
Orbital elements
Apogee altitude
580.563 km
Perigee altitude
571.158 km
Semi-major axis
6,953.998 km
Eccentricity
0.00068
Inclination
97.3393°
RAAN
144.4533°
Arg. of periapsis
142.8104°
True anomaly
217.31181°
Mean anomaly
217.3588°
Eccentric anomaly
217.3353°
Mean motion
3.74275 °/min
Orbital period
96.19 mins
BSTAR
0.0004406
Loading maneuver chart data...
Computing Atmospheric mass density...
Loading historical data...
Loading historical data...
Loading historical data...
Loading historical data...
Loading historical data...
Loading historical data...
Loading historical data...

Documentation

Showing up to 5 results
|